Regional Weather Roundup
Issued by NWS

Home | Current Version | Previous Version | Text Only | Print | Product List | Glossary On
Versions: 1 2 3 4 5 6 7 8 9 10 11 12 13 14 15 16 17 18 19 20 21 22 23 24 25 26 27 28 29 30 31 32 33 34 35 36 37 38 39 40 41 42 43 44 45 46 47 48 49 50
000
ASUS45 KBOI 090610
RWRID

IDAHO REGIONAL WEATHER ROUNDUP
NATIONAL WEATHER SERVICE BOISE ID
1100 PM MST MON FEB 08 2016

NOTE: "FAIR" INDICATES FEW OR NO CLOUDS BELOW 12000 FEET
WITH NO SIGNIFICANT WEATHER AND/OR OBSTRUCTIONS TO VISIBILITY

IDZ012-014-090700-
SOUTHWEST IDAHO


CITY           SKY/WX    TMP DP  RH WIND       PRES   REMARKS
BOISE          CLEAR     34  30  85 E6        30.64R WCI  29
CALDWELL       CLEAR     31  30  96 S3        30.66R
MOUNTAIN HOME  CLEAR     31  26  84 E13       30.63S WCI  21
$$

IDZ016-017-090700-
SOUTHCENTRAL IDAHO


CITY           SKY/WX    TMP DP  RH WIND       PRES   REMARKS
BURLEY         FOG       29  28  96 NE9       30.61S VSB 3/4 WCI  20
JEROME         CLEAR     22  18  85 NE17      30.62S WCI   8
TWIN FALLS     FOG       30  29  96 E9        30.61S VSB 1/4 WCI  22
$$

IDZ019>023-090700-
SOUTHEAST IDAHO


CITY           SKY/WX    TMP DP  RH WIND       PRES   REMARKS
IDAHO FALLS    FOG       17  15  92 CALM      30.64S VSB 1/4
POCATELLO      FOG       26  25  96 NE3       30.65S VSB 1/2
REXBURG        FOG       15  13  91 CALM      30.63R VSB 1/2
$$

IDZ006-010-011-018-031-032-090700-
CENTRAL IDAHO MOUNTAINS


CITY           SKY/WX    TMP DP  RH WIND       PRES   REMARKS
MCCALL         PTCLDY    21  19  92 CALM      30.57S
HAILEY         CLEAR     19  18  93 NW7       30.61F WCI  10
STANLEY          N/A     17  13  84 CALM      30.63S
SALMON         CLOUDY    14  12  92 SE5       30.66S WCI   6
CHALLIS        CLEAR     14  10  84 CALM      30.64R
$$

IDZ002-004-006-007-026-090700-
NORTHERN IDAHO


CITY           SKY/WX    TMP DP  RH WIND       PRES   REMARKS
LEWISTON       PTCLDY    43  35  73 SE3       30.51S
LOWELL           N/A     34  32  92 N5        30.62R WCI  30
COEUR D`ALENE  CLEAR     34  28  80 NE9       30.51S WCI  26
MULLAN PASS    CLEAR     39  30  70 W3        30.51S
$$



USA.gov is the U.S. government's official web portal to all federal, state and local government web resources and services.